Regional Weather Roundup
Issued by NWS

Home | Current Version | Previous Version | Text Only | Print | Product List | Glossary On
Versions: 1 2 3 4 5 6 7 8 9 10 11 12 13 14 15 16 17 18 19 20 21 22 23 24 25 26 27 28 29 30 31 32 33 34 35 36 37 38 39 40 41 42 43 44 45 46 47 48 49 50
000
ASUS43 KMKX 060921
RWRWI

WISCONSIN REGIONAL WEATHER ROUNDUP
NATIONAL WEATHER SERVICE MILWAUKEE/SULLIVAN WI
300 AM CST FRI DEC 06 2019

NOTE: "FAIR" INDICATES FEW OR NO CLOUDS BELOW 12,000 FEET WITH NO
SIGNIFICANT WEATHER AND/OR OBSTRUCTIONS TO VISIBILITY.

WIZ001-002-006>008-014>016-023>028-061000-
NORTHWEST WISCONSIN

CITY           SKY/WX    TMP DP  RH WIND       PRES   REMARKS
SUPERIOR ARPT  MOCLDY    21  13  71 NW9       30.26R WCI  10
ASHLAND        CLOUDY    25  18  74 NW15      30.19R WCI  13
HAYWARD        CLOUDY    25  16  68 VRB7G17   30.19R WCI  17
SIREN          MOCLDY    24  17  73 N8        30.24R WCI  15
CUMBERLAND     CLOUDY    27  18  69 NW16G22   30.19R WCI  14
RICE LAKE      CLOUDY    28  10  47 NW5       30.21R WCI  23
CHETEK         CLOUDY    28  20  73 N8        30.19R WCI  20
LADYSMITH      CLOUDY    29  22  75 NW9       30.17R WCI  21
EAU CLAIRE     CLOUDY    32  22  66 NW8       30.18R WCI  25
MENOMONIE      FAIR      27  19  69 NW14      30.21R WCI  16
NEW RICHMOND   CLOUDY    28  19  71 NW13G20   30.23R WCI  17
OSCEOLA        CLOUDY    27  20  76 NW12G18   30.28R WCI  16
$$

WIZ003>005-009-010-017-018-061000-
NORTH CENTRAL WISCONSIN

CITY           SKY/WX    TMP DP  RH WIND       PRES   REMARKS
MANITOWISH WTR CLOUDY    25  19  79 NW9       30.08R WCI  16
ARBOR VITAE    CLOUDY    28  22  78 NW10G16   30.08R WCI  19
WOODRUFF       CLOUDY    28  22  78 NW10G16   30.08R WCI  19
RHINELANDER    CLOUDY    27  19  72 NW13G22   30.07R WCI  16
EAGLE RIVER    CLOUDY    25  17  72 N15G26    30.07R WCI  13
LAND O LAKES   CLOUDY    25  19  75 NW10G23   30.08R WCI  15
PHILLIPS       CLOUDY    27  21  79 NW9       30.11R WCI  17
TOMAHAWK       CLOUDY    27  19  72 NW9G18    30.11R WCI  17
MEDFORD        CLOUDY    27  21  79 NW10      30.11R WCI  17
MERRILL        CLOUDY    29  21  72 N14G23    30.10R WCI  18
$$

WIZ029-030-035-036-043>047-061000-
CENTRAL WISCONSIN

CITY           SKY/WX    TMP DP  RH WIND       PRES   REMARKS
WAUSAU         CLOUDY    29  22  75 NW13G20   30.08R WCI  19
MOSINEE        CLOUDY    30  23  74 NW14      30.11R WCI  20
MARSHFIELD     CLOUDY    30  23  75 N14       30.10R WCI  19
STEVENS POINT  CLOUDY    29  23  78 NW8       30.10R WCI  21
WAUPACA        MOCLDY    32  26  78 NW8       30.09R WCI  25
WAUTOMA        MOCLDY    30  27  86 NW8       30.10R WCI  23
WISC RAPIDS    CLOUDY    32  23  69 N15G23    30.12R WCI  22
CAMP DOUGLAS   CLOUDY    31  27  85 NW12G20   30.13R WCI  22
$$

WIZ011>013-019>022-031-037>040-048>050-061000-
NORTHEAST WISCONSIN

CITY           SKY/WX    TMP DP  RH WIND       PRES   REMARKS
ANTIGO         CLOUDY    28  22  79 NW12      30.06R WCI  17
SHAWANO        CLOUDY    29  25  85 NW3       30.08R
OCONTO         FAIR      25  22  87 NW5       30.06R WCI  19
STURGEON BAY   MOCLDY    29  25  85 MISG      30.04R
GREEN BAY      FAIR      25  21  85 NW10      30.07R WCI  15
MANITOWOC      FAIR      29  26  89 N16       30.05R WCI  17
APPLETON       FAIR      27  21  80 NW12      30.05R WCI  16
CLINTONVILLE   MOCLDY    29  24  79 N7        30.08R WCI  22
OSHKOSH        FAIR      29  24  82 NW12      30.06R WCI  19
$$

WIZ032>034-041-042-053>061-061000-
SOUTHWEST WISCONSIN

CITY           SKY/WX    TMP DP  RH WIND       PRES   REMARKS
LA CROSSE      CLOUDY    32  25  75 N9        30.18R WCI  24
SPARTA         CLOUDY    31  26  81 NW9       30.18R WCI  23
VIROQUA        CLOUDY    30  28  90 N15G22    30.13S WCI  19
BOSCOBEL       CLOUDY    35  26  69 N13G18    30.15R WCI  26
PRAIRIE DU CHI CLOUDY    33  25  71 NW18G24   30.17R WCI  22
PLATTEVILLE    CLOUDY    34  31  89 N13G21    30.11R WCI  25
$$

WIZ056-057-062-063-064-067-068-061000-
SOUTH CENTRAL WISCONSIN

CITY           SKY/WX    TMP DP  RH WIND       PRES   REMARKS
REEDSBURG      CLOUDY    32  26  77 NW9G22    30.12R WCI  24
BARABOO/DELLS  CLOUDY    31  26  79 N9G17     30.11R WCI  23
LONE ROCK      CLOUDY    34  26  72 N14G23    30.13R WCI  25
MINERAL POINT  CLOUDY    36  30  80 N12G20    30.09R WCI  27
MADISON        MOCLDY    34  27  75 N12       30.07R WCI  25
MIDDLETON      FAIR      34  28  77 N15       30.10R WCI  24
WATERTOWN      MOCLDY    32  30  91 N10G18    30.07R WCI  24
MONROE         CLOUDY    35  29  80 N15G23    30.06R WCI  25
JANESVILLE     CLOUDY    37  32  81 N17G25    30.04R WCI  28
$$

WIZ051-052-058>065-066-070>072-061000-
SOUTHEAST WISCONSIN

CITY           SKY/WX    TMP DP  RH WIND       PRES   REMARKS
MILWAUKEE      CLOUDY    38  30  73 N18G30    30.00R WCI  28
WAUKESHA       CLOUDY    32  27  80 N15G26    30.04R WCI  22
MILWAUKEE/TIMM CLOUDY    32  27  80 N16       30.05R WCI  21
RACINE         CLOUDY    39  33  79 N13       30.00R WCI  31
KENOSHA        CLOUDY    40  35  83 NW13      29.99R WCI  32
FOND DU LAC    FAIR      30  25  81 NW9       30.07R WCI  22
SHEBOYGAN      FAIR      30  25  81 N18       30.03R WCI  18
WEST BEND      MOCLDY    32  28  86 N15       30.05R WCI  22
JUNEAU         MOCLDY   N/A N/A N/A NW13G20   30.05
$$

LSZ147-162-061000-
LAKE SUPERIOR

STATION/POSITION TIME  TEMP    WIND        PRES    WAVE
                       AIR SEA DIR/SP/G            HT/PER
                 (UTC) (F)     (DEG/KT/KT) (MB)    (FT/S)
DEVILS ISLAND    0900   25     320/ 25/ 30 1022.7R
SAXON HARBOR     0840   31     310/ 19/ 23 1020.7R
$$

LMZ867-665-643>646-061000-
LAKE MICHIGAN

STATION/POSITION TIME  TEMP    WIND        PRES    WAVE
                       AIR SEA DIR/SP/G            HT/PER
                 (UTC) (F)     (DEG/KT/KT) (MB)    (FT/S)
CHAMBERS ISLAND  0840   29     270/ 14/ 20   N/A
KEWAUNEE LAKESHO 0848   29     340/  9/ 14 1016.7R
SHEBOYGAN LAKESH 0900   31     330/ 15/ 20 1018.0R
PORT WASHINGTON  0840   35     340/ 12/ 22 1017.9R
MILWAUKEE LAKESH 0900   36     330/ 19/ 23   N/A
KENOSHA   LAKESH 0900   40     330/ 11/ 16 1015.9
$$

TC  - TEMPERATURE IN CELSIUS
VSB - VISIBILITY IN STATUTE MILES
WCI - WIND CHILL INDEX
HX  - HEAT INDEX




USA.gov is the U.S. government's official web portal to all federal, state and local government web resources and services.